This is the latest recevied weather packets stored in our database for station/object N5COP-13. If no packets are shown the sender has not sent any weather packets the latest 10 day(s).
| Time | Temp. | Humidity | Pressure | Rain* | Wind** | Luminosity | Snow |
|---|---|---|---|---|---|---|---|
| 1777931314 | 28.89° C | 20% | 1005.9 hPa | 0 mm | - | 385 W/m² | - |
| 1777931012 | 29.44° C | 19% | 1005.9 hPa | 0 mm | - | 374 W/m² | - |
| 1777930708 | 29.44° C | 19% | 1005.9 hPa | 0 mm | - | 305 W/m² | - |
| 1777930404 | 28.89° C | 19% | 1006 hPa | 0 mm | - | 477 W/m² | - |
| 1777930102 | 29.44° C | 19% | 1006 hPa | 0 mm | - | 392 W/m² | - |
| 1777929797 | 28.89° C | 19% | 1006.1 hPa | 0 mm | - | 337 W/m² | - |
| 1777929496 | 29.44° C | 19% | 1006.1 hPa | 0 mm | - | 371 W/m² | - |
| 1777929191 | 29.44° C | 20% | 1006.1 hPa | 0 mm | - | 430 W/m² | - |
| 1777928889 | 28.89° C | 20% | 1006.6 hPa | 0 mm | - | 510 W/m² | - |
| 1777928586 | 28.89° C | 19% | 1006.6 hPa | 0 mm | - | 452 W/m² | - |
| 1777928283 | 28.89° C | 20% | 1006.5 hPa | 0 mm | - | 326 W/m² | - |
| 1777927981 | 29.44° C | 20% | 1006.6 hPa | 0 mm | - | 358 W/m² | - |
| 1777927679 | 29.44° C | 20% | 1006.6 hPa | 0 mm | - | 622 W/m² | - |
| 1777927377 | 28.89° C | 21% | 1006.9 hPa | 0 mm | - | 583 W/m² | - |
| 1777927076 | 28.89° C | 22% | 1006.7 hPa | 0 mm | - | 394 W/m² | - |
| 1777926773 | 28.89° C | 21% | 1006.8 hPa | 0 mm | - | 357 W/m² | - |
| 1777926473 | 28.89° C | 22% | 1006.9 hPa | 0 mm | - | 430 W/m² | - |
| 1777926170 | 29.44° C | 21% | 1006.9 hPa | 0 mm | - | 522 W/m² | - |
| 1777925867 | 29.44° C | 21% | 1007 hPa | 0 mm | - | 717 W/m² | - |
| 1777925564 | 28.89° C | 21% | 1007.3 hPa | 0 mm | - | 526 W/m² | - |
| 1777925262 | 28.89° C | 21% | 1007 hPa | 0 mm | - | 566 W/m² | - |
| 1777924958 | 28.89° C | 23% | 1007.3 hPa | 0 mm | - | 509 W/m² | - |
| 1777924655 | 28.89° C | 22% | 1007.3 hPa | 0 mm | - | 525 W/m² | - |
| 1777924350 | 28.89° C | 21% | 1007.1 hPa | 0 mm | - | 546 W/m² | - |
| 1777924048 | 29.44° C | 22% | 1007.3 hPa | 0 mm | - | 682 W/m² | - |
* Rain latest hour (hover to see other rain measurements)
** Current wind speed in m/s (hover to see current wind gust speed)